Flag for Trinidad and Tobago Weather past 2 weeks in Chaguanas, Trinidad and Tobago

Now
79 °F

Passing clouds.


Feels Like: 82 °F
Forecast: 77 / 90 °F
Wind: No wind

Location: Piarco International Airport - Trinidad

Current Time: Sep 15, 2014 at 12:05:45 AM

Latest Report: Sep 14, 2014 at 11:00 PM


Visibility: N/A

Pressure: 29.95 "Hg

Humidity: 89%

Dew point: 75 °F

Location of ChaguanasLocation

Historic Weather in Chaguanas — Graph

°F

Chaguanas temperature yesterday

Maximum temperature yesterday: 91 °F (at 1:00 PM)
Minimum temperature yesterday: 77 °F (at 1:00 AM)
Average temperature yesterday: 83 °F

Past Weeks' High & Low Weather Summary

 TemperatureHumidityPressure
High93 °F (Sep 1, 1:00 PM)100% (Sep 4, 6:00 AM)30.01 "Hg (Sep 4, 6:00 AM)
Low75 °F (Aug 31, 1:00 AM)49% (Sep 1, 1:00 PM)29.80 "Hg (Sep 10, 5:00 PM)
Average82 °F79%29.90 "Hg
* Reported Aug 30 10:00 PM — Sep 14 10:00 PM, Chaguanas, Weather by CustomWeather, © 2014

Note: Actual official high and low records may vary slightly from our data, if they occured in-between our weather recording intervals... More about our weather records

Advertising

Chaguanas weather history for previous 24 hours

 ConditionsComfort  
Time TempWeatherWind HumidityBarometerVisibility
10:00 PM
Sep 14
79 °FPassing clouds.No wind89%29.95 "HgN/A
9:00 PM81 °FPassing clouds.No wind84%29.95 "HgN/A
8:00 PM81 °FPassing clouds.No wind79%29.92 "HgN/A
7:00 PM82 °FPassing clouds.3 mph79%29.89 "HgN/A
6:00 PM82 °FPassing clouds.9 mph70%29.89 "HgN/A
5:00 PM86 °FPassing clouds.13 mph66%29.86 "HgN/A
4:00 PM90 °FPassing clouds.15 mph59%29.86 "HgN/A
3:00 PM91 °FScattered clouds.14 mph56%29.86 "HgN/A
2:00 PM90 °FScattered clouds.9 mph55%29.89 "HgN/A
1:00 PM91 °FScattered clouds.14 mph56%29.89 "HgN/A
12:00 PM88 °FScattered clouds.12 mph62%29.92 "HgN/A
11:00 AM90 °FScattered clouds.9 mph63%29.95 "HgN/A
10:00 AM88 °FPartly sunny.14 mph66%29.95 "HgN/A
9:00 AM88 °FPartly sunny.9 mph70%29.95 "HgN/A
8:00 AM84 °FPassing clouds.No wind79%29.92 "HgN/A
7:00 AM79 °FPassing clouds.No wind89%29.92 "HgN/A
6:00 AM77 °FPassing clouds.No wind94%29.89 "HgN/A
5:00 AM77 °FPassing clouds.No wind94%29.89 "HgN/A
4:00 AM77 °FPassing clouds.No wind94%29.89 "HgN/A
3:00 AM77 °FPassing clouds.No wind94%29.86 "HgN/A
2:00 AM77 °FPassing clouds.No wind94%29.89 "HgN/A
1:00 AM77 °FPassing clouds.No wind94%29.89 "HgN/A
12:00 AM79 °FPassing clouds.No wind89%29.89 "HgN/A
Weather by CustomWeather, © 2014

See weather overviewHow to use our weather pages